Tracy, MN

3:23 PM CDT on April 28, 2017 (GMT -0500)
Tracy

Weather History for KTKC - May, 2013

Change the Weather History Date:

Monday, May 20, 2013

  Actual Average (KMML) Record (KMML)
Temperature  
Mean Temperature 64 °F -  
Max Temperature 70 °F 71 °F 88 °F (1955)
Min Temperature 60 °F 47 °F 24 °F (2002)
Growing Degree Days 14 (Base 50)    
Moisture  
Dew Point 56 °F    
Average Humidity 78    
Maximum Humidity 97    
Minimum Humidity 56    
Precipitation  
Precipitation 0.01 in - - ()
Sea Level Pressure  
Sea Level Pressure 29.50 in    
Wind  
Wind Speed 6 mph (SSW)    
Max Wind Speed 21 mph    
Max Gust Speed 33 mph    
Visibility 9 miles    
Events Rain    
Averages and records for this station are not official NWS values.
T = Trace of Precipitation, MM = Missing Value Source: NWS Daily Summary

Daily Weather History Graph

Daily Weather History Graph

Search for Another Location

Airport or City:

Trip Planner

Search our weather history database for the weather conditions in past years. The results will help you decide how hot, cold, wet, or windy it might be!

Date:

Astronomy

May. 20, 2013 Rise Set
Actual Time 5:50 AM CDT 8:48 PM CDT
Civil Twilight 5:16 AM CDT 9:22 PM CDT
Nautical Twilight 4:32 AM CDT 10:06 PM CDT
Astronomical Twilight 3:40 AM CDT 10:58 PM CDT
Moon 3:47 PM CDT (5/20) 2:57 AM CDT (5/20)
Length of Visible Light 16h 06m
Length of Day
14h 58m
Waxing Gibbous, 75% of the Moon is Illuminated
May 20
Waxing Gibbous
May 24
Full
May 31
Last Quarter
Jun 8
New
Jun 16
First Quarter

Hourly Weather History & Observations

Time (CDT) Temp. Dew Point Humidity Pressure Visibility Wind Dir Wind Speed Gust Speed Precip Events Conditions
12:13 AM 62.1 °F 60.6 °F 95% 29.56 in 5.0 mi Calm Calm - N/A   Scattered Clouds
12:33 AM 61.3 °F 59.9 °F 95% 29.56 in 4.0 mi Calm Calm - N/A   Mostly Cloudy
12:53 AM 61.9 °F 60.6 °F 96% 29.55 in 4.0 mi Calm Calm - N/A   Mostly Cloudy
1:14 AM 61.5 °F 60.3 °F 96% 29.53 in 3.0 mi Calm Calm - N/A   Scattered Clouds
1:34 AM 61.7 °F 60.6 °F 96% 29.53 in 2.5 mi Calm Calm - N/A   Mostly Cloudy
1:53 AM 61.7 °F 60.8 °F 97% 29.51 in 2.0 mi Calm Calm - N/A   Overcast
2:13 AM 61.9 °F 60.8 °F 96% 29.50 in 2.0 mi Calm Calm - N/A   Mostly Cloudy
2:33 AM 61.7 °F 60.8 °F 97% 29.49 in 2.0 mi Calm Calm - N/A   Mostly Cloudy
3:14 AM 62.1 °F 61.0 °F 96% 29.49 in 4.0 mi Calm Calm - N/A   Overcast
3:33 AM 62.1 °F 60.8 °F 96% 29.48 in 4.0 mi Calm Calm - 0.01 in Rain Light Rain
3:53 AM 62.1 °F 60.1 °F 93% 29.48 in 7.0 mi South 4.6 mph - 0.01 in   Drizzle
4:13 AM 61.9 °F 59.9 °F 93% 29.48 in 10.0 mi South 6.9 mph - N/A   Overcast
4:33 AM 61.9 °F 59.5 °F 92% 29.47 in 7.0 mi South 4.6 mph - N/A   Overcast
4:54 AM 61.9 °F 59.2 °F 91% 29.47 in 10.0 mi SSW 11.5 mph - N/A   Overcast
5:14 AM 61.7 °F 58.1 °F 88% 29.46 in 10.0 mi Calm Calm - N/A   Light Drizzle
5:33 AM 61.5 °F 57.9 °F 88% 29.46 in 10.0 mi Calm Calm - N/A   Overcast
5:53 AM 61.2 °F 57.7 °F 88% 29.47 in 10.0 mi Calm Calm - N/A   Overcast
6:14 AM 60.8 °F 57.0 °F 87% 29.48 in 10.0 mi Calm Calm - N/A   Overcast
6:34 AM 60.3 °F 56.7 °F 88% 29.48 in 10.0 mi Calm Calm - N/A   Mostly Cloudy
7:14 AM 60.1 °F 56.8 °F 89% 29.49 in 7.0 mi Calm Calm - N/A   Overcast
7:34 AM 60.1 °F 56.3 °F 87% 29.48 in 10.0 mi SSW 10.4 mph 16.1 mph N/A   Overcast
7:53 AM 60.3 °F 56.3 °F 87% 29.48 in 10.0 mi SSW 12.7 mph 19.6 mph N/A   Overcast
8:14 AM 60.3 °F 56.3 °F 87% 29.48 in 10.0 mi SSW 16.1 mph 21.9 mph N/A   Mostly Cloudy
8:34 AM 62.4 °F 56.8 °F 82% 29.48 in 10.0 mi SSW 16.1 mph 26.5 mph N/A   Mostly Cloudy
9:14 AM 63.7 °F 56.7 °F 78% 29.48 in 10.0 mi SSW 18.4 mph 24.2 mph N/A   Mostly Cloudy
9:34 AM 63.9 °F 56.5 °F 77% 29.48 in 10.0 mi SSW 17.3 mph 24.2 mph N/A   Overcast
9:53 AM 63.9 °F 57.0 °F 78% 29.49 in 10.0 mi SSW 16.1 mph 21.9 mph N/A   Overcast
10:34 AM 61.3 °F 56.7 °F 85% 29.50 in 7.0 mi SW 16.1 mph 23.0 mph N/A   Overcast
10:54 AM 61.2 °F 56.3 °F 84% 29.50 in 7.0 mi SW 15.0 mph 20.7 mph N/A   Overcast
11:14 AM 62.4 °F 56.3 °F 80% 29.51 in 10.0 mi SW 19.6 mph 24.2 mph N/A   Overcast
11:33 AM 64.4 °F 57.6 °F 78% 29.50 in 10.0 mi SW 18.4 mph 21.9 mph N/A   Overcast
11:53 AM 64.4 °F 57.2 °F 77% 29.50 in 10.0 mi SW 18.4 mph - N/A   Overcast
12:14 PM 63.5 °F 56.1 °F 77% 29.52 in 10.0 mi SW 18.4 mph 24.2 mph N/A   Overcast
12:33 PM 63.3 °F 55.8 °F 76% 29.52 in 10.0 mi SSW 19.6 mph 25.3 mph N/A   Overcast
1:14 PM 66.4 °F 54.5 °F 66% 29.51 in 10.0 mi SW 19.6 mph 24.2 mph N/A   Mostly Cloudy
1:53 PM 68.2 °F 54.3 °F 61% 29.51 in 10.0 mi SSW 17.3 mph 24.2 mph N/A   Overcast
2:14 PM 68.7 °F 54.0 °F 59% 29.51 in 10.0 mi SSW 16.1 mph 25.3 mph N/A   Mostly Cloudy
2:33 PM 69.4 °F 53.8 °F 57% 29.51 in 10.0 mi SSW 17.3 mph 23.0 mph N/A   Mostly Cloudy
2:53 PM 69.1 °F 52.7 °F 56% 29.52 in 10.0 mi SSW 19.6 mph 33.4 mph N/A   Mostly Cloudy
3:13 PM 66.7 °F 52.5 °F 60% 29.52 in 10.0 mi SW 20.7 mph 27.6 mph N/A   Mostly Cloudy
3:34 PM 68.2 °F 53.1 °F 58% 29.52 in 10.0 mi SSW 20.7 mph 28.8 mph N/A   Overcast
3:53 PM 67.3 °F 52.7 °F 59% 29.52 in 10.0 mi SSW 18.4 mph 26.5 mph N/A   Overcast
4:13 PM 68.4 °F 53.4 °F 59% 29.52 in 10.0 mi SSW 13.8 mph 21.9 mph N/A   Overcast
4:34 PM 66.2 °F 52.5 °F 61% 29.52 in 10.0 mi SSW 20.7 mph 26.5 mph N/A   Overcast
4:54 PM 67.5 °F 52.7 °F 59% 29.52 in 10.0 mi SSW 17.3 mph 29.9 mph N/A   Overcast
5:13 PM 67.6 °F 52.2 °F 58% 29.52 in 10.0 mi SSW 18.4 mph 25.3 mph N/A   Overcast
5:33 PM 66.6 °F 52.7 °F 61% 29.52 in 10.0 mi SSW 16.1 mph 27.6 mph N/A   Overcast
5:54 PM 65.8 °F 53.1 °F 63% 29.52 in 10.0 mi SSW 15.0 mph 26.5 mph N/A   Overcast
6:13 PM 66.6 °F 53.2 °F 62% 29.51 in 10.0 mi SSW 16.1 mph 20.7 mph N/A   Overcast
6:33 PM 67.1 °F 52.9 °F 60% 29.51 in 10.0 mi SSW 15.0 mph 20.7 mph N/A   Overcast
6:54 PM 66.2 °F 51.8 °F 60% 29.51 in 10.0 mi South 12.7 mph 18.4 mph N/A   Overcast
7:13 PM 66.2 °F 51.3 °F 59% 29.51 in 10.0 mi South 12.7 mph 16.1 mph N/A   Overcast
7:33 PM 66.0 °F 51.1 °F 59% 29.50 in 10.0 mi South 3.5 mph - N/A   Overcast
7:54 PM 65.5 °F 52.0 °F 62% 29.50 in 10.0 mi South 10.4 mph - N/A   Overcast
8:13 PM 64.6 °F 52.7 °F 65% 29.50 in 10.0 mi Calm Calm - N/A   Overcast
8:33 PM 64.0 °F 53.6 °F 69% 29.50 in 10.0 mi Calm Calm - N/A   Overcast
9:14 PM 63.0 °F 54.3 °F 73% 29.49 in 10.0 mi Calm Calm - N/A   Overcast
9:34 PM 62.1 °F 54.9 °F 77% 29.50 in 10.0 mi Calm Calm - N/A   Overcast
9:53 PM 61.3 °F 54.9 °F 79% 29.50 in 10.0 mi Calm Calm - N/A   Overcast
10:14 PM 61.7 °F 56.1 °F 82% 29.51 in 10.0 mi Calm Calm - N/A   Overcast
10:33 PM 61.5 °F 56.3 °F 83% 29.51 in 10.0 mi Calm Calm - N/A   Overcast
10:53 PM 61.0 °F 56.5 °F 85% 29.50 in 10.0 mi Calm Calm - N/A   Mostly Cloudy
11:14 PM 61.0 °F 56.7 °F 86% 29.50 in 10.0 mi Calm Calm - N/A   Overcast
11:33 PM 61.7 °F 56.8 °F 84% 29.50 in 10.0 mi Calm Calm - N/A   Overcast
11:53 PM 61.5 °F 56.7 °F 84% 29.50 in 10.0 mi Calm Calm - N/A   Overcast